Location: Alsip
(41.6689°N, 87.7387°W)
Time: 14:27:20
(UTC+00:00)

Cosmos 1892 - Pass Details

Date: 14 July 2020
Orbit: 505 x 523 km, 82.5° (Epoch: 04 August)

Event Time Altitude Azimuth Distance (km) Brightness Sun altitude
Exits shadow 02:56:30 23° 161° (SSE) 1,119 3.9 -14.2°
Maximum altitude 02:58:36 52° 94° (E) 644 2.9 -14.5°
Drops below altitude 10° 03:02:19 10° 18° (NNE) 1,746 5.8 -14.9°
Sets 03:04:30 0° 13° (NNE) 2,641 6.8 -15.2°
